Location: Mentone
(34.5413°N, 85.5351°W)
Time: 13:44:45
(UTC-05:00)

UOSAT-12 - Visible Passes

Search period start: 06 May 2016 00:00
Search period end: 16 May 2016 00:00
Orbit: 619 x 635 km, 64.6° (Epoch: 05 May)

Date Brightness Start Highest point End Pass type
(mag) Time Alt. Az. Time Alt. Az. Time Alt. Az.
08 May 9.7 05:17:09 10° SSE 05:20:23 19° ESE 05:23:39 10° ENE visible
11 May 9.2 04:36:23 10° SSE 04:39:59 23° ESE 04:43:36 10° ENE visible
12 May 7.7 04:55:13 10° SSW 04:59:41 56° ESE 05:04:10 10° NE visible
13 May 9.8 03:38:27 10° SE 03:40:01 12° ESE 03:41:33 10° E visible
14 May 8.8 03:56:25 14° SSE 03:59:35 28° ESE 04:03:29 10° NE visible
15 May 7.3 04:16:14 20° SSW 04:19:19 69° ESE 04:23:52 10° NE visible
